Powrót do katalogu

THORAD AGENA D DEB

AktywnySSO
NORAD 4970·DEBRIS·🇺🇸 United States

Wystrzelony Apr 8, 1970 z Vandenberg Space Force Base

Loading…

Następne Przeloty

TLE

Source: Space-Track
1  4970U 70025GQ  26221.85263950  .00000238  00000-0  37922-3 0  9994
2  4970  99.9563 187.6069 0038049  93.4586 335.5980 13.59969134781851

Śledź THORAD AGENA D DEB w czasie rzeczywistym z AllMySat

Download on the App Store